Location: Anumalkud?ru
(16.4847°N, 80.6636°E)
Time: 15:33:48
(UTC+00:00)

Meteor 2-9 Rocket - Pass Details

Date: 11 April 2026
Orbit: 789 x 894 km, 81.3° (Epoch: 11 May)

Event Time Altitude Azimuth Distance (km) Brightness Sun altitude
Rises 22:30:36 0° 356° (N) 3,290 7.5 -27.3°
Reaches altitude 10° 22:32:59 10° 358° (N) 2,353 6.7 -26.8°
Maximum altitude 22:38:16 78° 84° (E) 806 4.1 -25.6°
Drops below altitude 10° 22:43:33 10° 171° (S) 2,349 6.4 -24.4°
Sets 22:45:55 0° 172° (S) 3,284 7.2 -23.8°
